Starlink 5169

operational
NORAD ID: 54060 Int'l Des: 2022-136 Owner: SPXS Country: US Constellation: starlink
LEOCIRCULAR

About Starlink 5169

Description loading...

Live Position

Loading 3D Globe...

Upcoming Passes

Altitude History

Altitude vs Time

uPlot chart will show altitude changes over time

Two-Line Element Set

1 54060U 22136K 25303.88640579 .00000610 00000-0 56414-4 0 9990
2 54060 53.2163 176.4868 0001462 91.4272 268.6888 15.08839589167674
Epoch: Oct 30, 2025 • Age: 15 hours

Current Status

Altitude 539.9 km
Velocity 7.59 km/s
Sub-Earth Point 5.31°N, 124.45°E
Launch Date Oct 20, 2022
Age 3 years
Type internet

Technical Details

Classification Payload
Mass 305.00 kg
Dry Mass 290.00 kg
Total Mass 305.00 kg
Length 0.20 m
Diameter 2.80 m
Span 9.00 m
Shape Box + pan
Manufacturer SPXS
Bus Type Starlink
Phase Status In Orbit
Owner/State SPXS/US

Large Constellations

Loading constellations...